Regional Weather Roundup
Issued by NWS

Home | Current Version | Previous Version | Graphics & Text | Print | Product List | Glossary On
Versions: 1 2 3 4 5 6 7 8 9 10 11 12 13 14 15 16 17 18 19 20 21 22 23 24 25 26 27 28 29 30 31 32 33 34 35 36 37 38 39 40 41 42 43 44 45 46 47 48 49 50
000
ASUS43 KIND 162209
RWRIN

WEATHER ROUNDUP FOR INDIANA
NATIONAL WEATHER SERVICE INDIANAPOLIS IN
600 PM EDT WED APR 16 2014

NOTE: "FAIR" INDICATES FEW OR NO CLOUDS BELOW 12,000 FEET WITH NO
SIGNIFICANT WEATHER AND/OR OBSTRUCTIONS TO VISIBILITY.

* - STATION DOES NOT REPORT WEATHER SUCH AS PRECIPITATION OR FOG.

+ - STATION NOT QUALITY CONTROLLED BY THE NATIONAL WEATHER SERVICE.
    USE DATA WITH CAUTION...ESPECIALLY DEWPOINT AND RELATIVE
    HUMIDITY OBSERVATIONS.

INZ001>003-010>013-019-020-162300-
NORTHWEST INDIANA

CITY           SKY/WX    TMP DP  RH WIND       PRES   REMARKS
GARY /AIRPORT/ MOSUNNY   52  21  30 SE17G36   30.18F
LA PORTE +     MOSUNNY   49  20  33 SE16      30.21F
MICHIGAN CITY+ SUNNY     50  19  29 SE10G22   30.20F
MONTICELLO +   SUNNY     50  25  38 SE10G22   30.21F
RENSSELAER +   SUNNY     52  21  30 SE15G24   30.19F
VALPARAISO     SUNNY     49  20  31 SE17G28   30.20F

$$

LMZ046-743>745-162300-
SOUTHERN LAKE MICHIGAN

STATION/POSITION TIME  TEMP WIND        PRES
                       AIR  DIR/SP/G
                 (UTC) (F)  (DEG/KT/KT) (MB)
MICHIGAN CITY    2200   48  110/ 17/ 22   N/A

$$

INZ004-005-014>016-021>024-162300-
NORTH CENTRAL INDIANA

CITY           SKY/WX    TMP DP  RH WIND       PRES   REMARKS
ELKHART        PTSUNNY   48  18  29 SE15G21   30.25F
GOSHEN         PTSUNNY   49  21  33 SE20G28   30.25F
LOGANSPORT +   SUNNY     50  23  34 SE17G24   30.24F
PERU/GRISSOM   SUNNY     51  23  34 S16       30.23F
ROCHESTER +    SUNNY     52  23  32 SE16G23   30.25F
SOUTH BEND     MOSUNNY   50  20  30 SE20      30.24F
WARSAW +       MOSUNNY   46  21  36 SE13G23   30.26F

$$

INZ006>009-017-018-025>027-162300-
NORTHEAST INDIANA

CITY           SKY/WX    TMP DP  RH WIND       PRES   REMARKS
ANGOLA *+      SUNNY     45  25  45 SE14      30.29F
AUBURN +       MOSUNNY   46  19  34 SE8       30.30F
FORT WAYNE     MOSUNNY   48  22  35 SE16      30.29F

$$

INZ028-029-035-036-043>045-051>053-162300-
WEST CENTRAL INDIANA

CITY           SKY/WX    TMP DP  RH WIND       PRES   REMARKS
GREENCASTLE +  MOSUNNY   50  23  34 SE14      30.21F
LAFAYETTE      SUNNY     50  22  33 SE16G26   30.20F
TERRE HAUTE    MOSUNNY   52  23  32 SE15G23   30.19F

$$

INZ030>032-037>040-046>048-054>057-064-065-162300-
CENTRAL INDIANA

CITY           SKY/WX    TMP DP  RH WIND       PRES   REMARKS
CP ATTERBURY + MOSUNNY   50  21  32 SE10G17   30.24F
COLUMBUS       SUNNY     52  19  28 SE12      30.24F
INDIANAPOLIS   PTSUNNY   48  21  34 SE17G26   30.22F
-EAGLE CREEK   SUNNY     49  19  30 SE10G22   30.22F
KOKOMO *+      SUNNY     50  27  40 SE21      30.24F
MARION +       SUNNY     49  20  32 SE16      30.26F HAZE
MT COMFORT *+  SUNNY     50  25  37 SE12      30.24F
SHELBYVILLE    MOSUNNY   51  22  31 E15       30.24F
ZIONSVILLE +   SUNNY     50  19  29 SE16      30.23F

$$

INZ033-034-041-042-049-050-058-059-162300-
EAST CENTRAL INDIANA

CITY           SKY/WX    TMP DP  RH WIND       PRES   REMARKS
MUNCIE         SUNNY     48  21  34 SE13G22   30.26F

$$

INZ060-061-067>069-081>083-085>088-162300-
SOUTHWEST INDIANA

CITY           SKY/WX    TMP DP  RH WIND       PRES   REMARKS
EVANSVILLE     MOSUNNY   55  25  31 SE10      30.19F
HUNTINGBURG *+ MOSUNNY   54  25  32 SE13G21   30.20F
WASHINGTON +   SUNNY     54  30  39 SE12      30.20F

$$

INZ062-063-066-070>080-084-089>092-162300-
SOUTH CENTRAL AND SOUTHEAST INDIANA

CITY           SKY/WX    TMP DP  RH WIND       PRES   REMARKS
BLOOMINGTON    MOSUNNY   51  21  30 SE13G23   30.21F
SEYMOUR +      SUNNY     48   5  17 E12       30.24

$$




USA.gov is the U.S. government's official web portal to all federal, state and local government web resources and services.